Time,TemperatureF,DewpointF,PressureIn,WindDirection,WindDirectionDegrees,WindSpeedMPH,WindSpeedGustMPH,Humidity,HourlyPrecipIn,Conditions,Clouds,dailyrainin,SoftwareType,DateUTC
2013-04-08 00:00:00,28.9,27.1,30.01,SSE,158,0.0,0.0,93,0.00,CLR,,0.07,WeatherDisplay:10.37,2013-04-08 04:00:00,
2013-04-08 00:01:00,28.9,27.1,30.00,SSE,158,0.0,0.0,93,0.00,RA,,0.00,WeatherDisplay:10.37,2013-04-08 04:01:00,
2013-04-08 00:02:00,28.9,27.1,30.00,SSE,158,0.0,0.0,93,0.00,RA,,0.00,WeatherDisplay:10.37,2013-04-08 04:02:00,
2013-04-08 00:07:00,28.8,27.3,30.00,SSE,158,1.7,2.3,94,0.00,RA,,0.00,WeatherDisplay:10.37,2013-04-08 04:07:00,
2013-04-08 00:12:00,29.3,28.0,30.01,SSE,158,0.2,1.7,95,0.00,CLR,,0.00,WeatherDisplay:10.37,2013-04-08 04:12:00,
2013-04-08 00:17:00,30.2,29.2,30.01,SSE,158,2.7,3.5,96,0.00,CLR,,0.00,WeatherDisplay:10.37,2013-04-08 04:17:00,
2013-04-08 00:22:00,31.1,29.8,30.01,SE,135,3.1,3.5,95,0.00,CLR,,0.00,WeatherDisplay:10.37,2013-04-08 04:22:00,
2013-04-08 00:28:00,31.3,29.2,30.00,SE,135,2.3,2.7,92,0.00,CLR,,0.00,WeatherDisplay:10.37,2013-04-08 04:28:00,
2013-04-08 00:33:00,32.2,29.9,30.00,ESE,112,3.2,3.5,91,0.00,CLR,,0.00,WeatherDisplay:10.37,2013-04-08 04:33:00,
2013-04-08 00:38:00,32.5,29.9,30.00,ESE,112,2.9,3.7,90,0.00,CLR,,0.00,WeatherDisplay:10.37,2013-04-08 04:38:00,
2013-04-08 00:43:00,33.3,30.1,30.00,ESE,112,4.2,5.8,88,0.00,CLR,,0.00,WeatherDisplay:10.37,2013-04-08 04:43:00,
2013-04-08 00:48:00,33.3,29.8,30.00,ESE,112,3.4,4.6,87,0.00,CLR,,0.00,WeatherDisplay:10.37,2013-04-08 04:48:00,
2013-04-08 00:53:00,33.3,29.8,30.00,ESE,112,3.0,3.5,87,0.00,CLR,,0.00,WeatherDisplay:10.37,2013-04-08 04:53:00,
2013-04-08 00:58:00,33.6,29.9,30.00,East,90,3.1,4.6,86,0.00,CLR,,0.00,WeatherDisplay:10.37,2013-04-08 04:58:00,
2013-04-08 01:03:00,33.8,30.1,30.00,ESE,112,3.5,3.7,86,0.00,CLR,,0.00,WeatherDisplay:10.37,2013-04-08 05:03:00,
2013-04-08 01:09:00,34.2,30.4,30.00,ESE,112,4.2,4.6,86,0.00,CLR,,0.00,WeatherDisplay:10.37,2013-04-08 05:09:00,
2013-04-08 01:14:00,34.2,30.2,30.00,ESE,112,3.0,4.6,85,0.00,CLR,,0.00,WeatherDisplay:10.37,2013-04-08 05:14:00,
2013-04-08 01:19:00,34.2,30.2,30.00,ESE,112,3.8,4.6,85,0.00,CLR,,0.00,WeatherDisplay:10.37,2013-04-08 05:19:00,
2013-04-08 01:24:00,34.2,30.2,30.00,ESE,112,3.3,4.6,85,0.00,CLR,,0.00,WeatherDisplay:10.37,2013-04-08 05:24:00,
2013-04-08 01:29:00,34.2,30.2,29.99,ESE,112,3.1,3.5,85,0.00,CLR,,0.00,WeatherDisplay:10.37,2013-04-08 05:29:00,
2013-04-08 01:34:00,34.7,30.4,29.99,ESE,112,3.9,4.6,84,0.00,CLR,,0.00,WeatherDisplay:10.37,2013-04-08 05:34:00,
2013-04-08 01:40:00,34.7,30.4,29.99,ESE,112,3.6,5.8,84,0.00,CLR,,0.00,WeatherDisplay:10.37,2013-04-08 05:40:00,
2013-04-08 01:45:00,34.9,30.6,29.99,ESE,112,4.3,5.8,84,0.00,CLR,,0.00,WeatherDisplay:10.37,2013-04-08 05:45:00,
2013-04-08 01:50:00,34.9,30.6,29.99,ESE,112,4.2,5.8,84,0.00,CLR,,0.00,WeatherDisplay:10.37,2013-04-08 05:50:00,
2013-04-08 01:55:00,34.9,30.6,29.99,ESE,112,3.4,5.8,84,0.00,CLR,,0.00,WeatherDisplay:10.37,2013-04-08 05:55:00,
2013-04-08 02:00:00,34.9,30.6,29.99,ESE,112,2.5,2.7,84,0.00,CLR,,0.00,WeatherDisplay:10.37,2013-04-08 06:00:00,
2013-04-08 02:05:00,34.9,30.6,29.98,ESE,112,4.1,5.8,84,0.00,CLR,,0.00,WeatherDisplay:10.37,2013-04-08 06:05:00,
2013-04-08 02:10:00,34.9,30.6,29.98,ESE,111,6.0,6.0,84,0.00,CLR,,0.00,WeatherDisplay:10.37,2013-04-08 06:10:00,
2013-04-08 02:15:00,35.4,30.8,29.98,ESE,112,3.5,3.5,83,0.00,CLR,,0.00,WeatherDisplay:10.37,2013-04-08 06:15:00,
2013-04-08 02:20:00,35.4,30.8,29.98,ESE,112,2.6,3.5,83,0.00,CLR,,0.00,WeatherDisplay:10.37,2013-04-08 06:20:00,
2013-04-08 02:25:00,35.4,30.8,29.98,ESE,112,5.4,5.8,83,0.00,CLR,,0.00,WeatherDisplay:10.37,2013-04-08 06:25:00,
2013-04-08 02:31:00,35.8,30.8,29.98,ESE,112,9.1,10.4,82,0.00,CLR,,0.00,WeatherDisplay:10.37,2013-04-08 06:31:00,
2013-04-08 02:36:00,36.1,31.1,29.98,ESE,112,9.1,9.2,82,0.00,CLR,,0.00,WeatherDisplay:10.37,2013-04-08 06:36:00,
2013-04-08 02:41:00,36.0,31.0,29.99,ESE,112,7.2,10.4,82,0.00,CLR,,0.00,WeatherDisplay:10.37,2013-04-08 06:41:00,
2013-04-08 02:47:00,35.8,30.8,29.99,ESE,112,6.4,8.1,82,0.00,CLR,,0.00,WeatherDisplay:10.37,2013-04-08 06:47:00,
2013-04-08 02:52:00,36.1,31.1,29.99,ESE,112,9.7,9.9,82,0.00,CLR,,0.00,WeatherDisplay:10.37,2013-04-08 06:52:00,
2013-04-08 02:57:00,36.0,31.0,29.99,ESE,112,8.9,9.2,82,0.00,CLR,,0.00,WeatherDisplay:10.37,2013-04-08 06:57:00,
2013-04-08 03:02:00,36.0,31.0,29.98,ESE,112,9.0,10.4,82,0.00,CLR,,0.00,WeatherDisplay:10.37,2013-04-08 07:02:00,
2013-04-08 03:07:00,36.1,31.1,29.98,ESE,112,10.8,12.7,82,0.00,CLR,,0.00,WeatherDisplay:10.37,2013-04-08 07:07:00,
2013-04-08 03:12:00,36.1,31.1,29.98,SE,135,11.3,14.0,82,0.00,CLR,,0.00,WeatherDisplay:10.37,2013-04-08 07:12:00,
2013-04-08 03:17:00,36.1,31.1,29.98,ESE,112,9.9,11.5,82,0.00,CLR,,0.00,WeatherDisplay:10.37,2013-04-08 07:17:00,
2013-04-08 03:22:00,36.1,31.1,29.98,ESE,112,8.6,10.4,82,0.00,CLR,,0.00,WeatherDisplay:10.37,2013-04-08 07:22:00,
2013-04-08 03:28:00,36.1,31.1,29.98,ESE,112,8.4,9.2,82,0.00,CLR,,0.00,WeatherDisplay:10.37,2013-04-08 07:28:00,
2013-04-08 03:33:00,36.1,31.1,29.98,ESE,112,8.3,8.3,82,0.00,CLR,,0.00,WeatherDisplay:10.37,2013-04-08 07:33:00,
2013-04-08 03:38:00,36.1,31.1,29.98,ESE,112,8.3,8.3,82,0.00,CLR,,0.00,WeatherDisplay:10.37,2013-04-08 07:38:00,
2013-04-08 03:43:00,36.1,31.1,29.98,ESE,112,8.3,8.3,82,0.00,CLR,,0.00,WeatherDisplay:10.37,2013-04-08 07:43:00,
2013-04-08 03:48:00,36.1,31.1,29.98,ESE,112,8.3,8.3,82,0.00,CLR,,0.00,WeatherDisplay:10.37,2013-04-08 07:48:00,
2013-04-08 03:53:00,36.1,31.1,29.98,ESE,112,8.3,8.3,82,0.00,CLR,,0.00,WeatherDisplay:10.37,2013-04-08 07:53:00,
2013-04-08 03:59:00,36.1,31.1,29.98,ESE,112,8.3,8.3,82,0.00,CLR,,0.00,WeatherDisplay:10.37,2013-04-08 07:59:00,
2013-04-08 04:04:00,36.1,31.1,29.98,ESE,112,8.3,8.3,82,0.00,CLR,,0.00,WeatherDisplay:10.37,2013-04-08 08:04:00,
2013-04-08 04:09:00,36.1,31.1,29.98,ESE,112,8.3,8.3,82,0.00,CLR,,0.00,WeatherDisplay:10.37,2013-04-08 08:09:00,
2013-04-08 04:14:00,36.1,31.1,29.98,ESE,112,8.3,8.3,82,0.00,CLR,,0.00,WeatherDisplay:10.37,2013-04-08 08:14:00,
2013-04-08 04:19:00,36.1,31.1,29.98,ESE,112,8.3,8.3,82,0.00,CLR,,0.00,WeatherDisplay:10.37,2013-04-08 08:19:00,
2013-04-08 04:25:00,36.1,31.1,29.98,ESE,112,8.3,8.3,82,0.00,CLR,,0.00,WeatherDisplay:10.37,2013-04-08 08:25:00,
2013-04-08 04:30:00,36.1,31.1,29.98,ESE,112,8.3,8.3,82,0.00,CLR,,0.00,WeatherDisplay:10.37,2013-04-08 08:30:00,
2013-04-08 04:35:00,36.1,31.1,29.98,ESE,112,8.3,8.3,82,0.00,CLR,,0.00,WeatherDisplay:10.37,2013-04-08 08:35:00,
2013-04-08 04:40:00,36.1,31.1,29.98,ESE,112,8.3,8.3,82,0.00,CLR,,0.00,WeatherDisplay:10.37,2013-04-08 08:40:00,
2013-04-08 04:45:00,36.1,31.1,29.98,ESE,112,8.3,8.3,82,0.00,CLR,,0.00,WeatherDisplay:10.37,2013-04-08 08:45:00,
2013-04-08 04:50:00,36.1,31.1,29.98,ESE,112,8.3,8.3,82,0.00,CLR,,0.00,WeatherDisplay:10.37,2013-04-08 08:50:00,
2013-04-08 04:55:00,36.1,31.1,29.98,ESE,112,8.0,8.0,82,0.00,CLR,,0.00,WeatherDisplay:10.37,2013-04-08 08:55:00,
2013-04-08 05:00:00,36.1,31.1,29.98,ESE,112,8.0,8.0,82,0.00,CLR,,0.00,WeatherDisplay:10.37,2013-04-08 09:00:00,
2013-04-08 05:05:00,36.1,31.1,29.98,ESE,112,8.3,8.3,82,0.00,CLR,,0.00,WeatherDisplay:10.37,2013-04-08 09:05:00,
2013-04-08 05:10:00,36.1,31.1,29.98,ESE,112,8.3,8.3,82,0.00,CLR,,0.00,WeatherDisplay:10.37,2013-04-08 09:10:00,
2013-04-08 05:16:00,36.1,31.1,29.98,ESE,112,8.3,8.3,82,0.00,CLR,,0.00,WeatherDisplay:10.37,2013-04-08 09:16:00,
2013-04-08 05:21:00,36.1,31.1,29.98,ESE,112,8.3,8.3,82,0.00,CLR,,0.00,WeatherDisplay:10.37,2013-04-08 09:21:00,
2013-04-08 05:26:00,36.1,31.1,29.98,ESE,112,8.3,8.3,82,0.00,CLR,,0.00,WeatherDisplay:10.37,2013-04-08 09:26:00,
2013-04-08 05:31:00,36.1,31.1,29.98,ESE,112,8.3,8.3,82,0.00,CLR,,0.00,WeatherDisplay:10.37,2013-04-08 09:31:00,
2013-04-08 05:36:00,36.1,31.1,29.98,ESE,112,8.3,8.3,82,0.00,CLR,,0.00,WeatherDisplay:10.37,2013-04-08 09:36:00,
2013-04-08 05:41:00,36.1,31.1,29.98,ESE,112,8.3,8.3,82,0.00,CLR,,0.00,WeatherDisplay:10.37,2013-04-08 09:41:00,
2013-04-08 05:47:00,36.1,31.1,29.98,ESE,112,8.3,8.3,82,0.00,CLR,,0.00,WeatherDisplay:10.37,2013-04-08 09:47:00,
2013-04-08 05:52:00,36.1,31.1,29.98,ESE,112,8.3,8.3,82,0.00,CLR,,0.00,WeatherDisplay:10.37,2013-04-08 09:52:00,
2013-04-08 05:57:00,36.1,31.1,29.98,ESE,112,8.3,8.3,82,0.00,CLR,,0.00,WeatherDisplay:10.37,2013-04-08 09:57:00,
2013-04-08 06:02:00,36.1,31.1,29.98,ESE,112,8.3,8.3,82,0.00,CLR,,0.00,WeatherDisplay:10.37,2013-04-08 10:02:00,
2013-04-08 06:07:00,36.1,31.1,29.98,ESE,112,8.3,8.3,82,0.00,CLR,,0.00,WeatherDisplay:10.37,2013-04-08 10:07:00,
2013-04-08 06:12:00,36.1,31.1,29.98,ESE,112,8.3,8.3,82,0.00,CLR,,0.00,WeatherDisplay:10.37,2013-04-08 10:12:00,
2013-04-08 06:18:00,36.1,31.1,29.98,ESE,112,8.3,8.3,82,0.00,CLR,,0.00,WeatherDisplay:10.37,2013-04-08 10:18:00,
2013-04-08 06:23:00,36.1,31.1,29.98,ESE,112,8.3,8.3,82,0.00,CLR,,0.00,WeatherDisplay:10.37,2013-04-08 10:23:00,
2013-04-08 06:28:00,36.1,31.1,29.98,ESE,112,8.3,8.3,82,0.00,CLR,,0.00,WeatherDisplay:10.37,2013-04-08 10:28:00,
2013-04-08 06:34:00,36.1,31.1,29.98,ESE,112,8.3,8.3,82,0.00,CLR,,0.00,WeatherDisplay:10.37,2013-04-08 10:34:00,
2013-04-08 06:39:00,36.1,31.1,29.98,ESE,112,8.3,8.3,82,0.00,CLR,,0.00,WeatherDisplay:10.37,2013-04-08 10:39:00,
2013-04-08 06:44:00,36.1,31.1,29.98,ESE,112,8.3,8.3,82,0.00,CLR,,0.00,WeatherDisplay:10.37,2013-04-08 10:44:00,
2013-04-08 06:49:00,36.1,31.1,29.98,ESE,112,8.3,8.3,82,0.00,CLR,,0.00,WeatherDisplay:10.37,2013-04-08 10:49:00,
2013-04-08 06:55:00,36.1,31.1,29.98,ESE,112,8.3,8.3,82,0.00,CLR,,0.00,WeatherDisplay:10.37,2013-04-08 10:55:00,
2013-04-08 07:00:00,36.1,31.1,29.98,ESE,112,8.3,8.3,82,0.00,CLR,,0.00,WeatherDisplay:10.37,2013-04-08 11:00:00,
2013-04-08 07:05:00,36.1,31.1,29.98,ESE,112,8.3,8.3,82,0.00,CLR,,0.00,WeatherDisplay:10.37,2013-04-08 11:05:00,
2013-04-08 07:10:00,36.1,31.1,29.98,ESE,112,8.3,8.3,82,0.00,CLR,,0.00,WeatherDisplay:10.37,2013-04-08 11:10:00,
2013-04-08 07:15:00,36.1,31.1,29.98,ESE,112,8.3,8.3,82,0.00,CLR,,0.00,WeatherDisplay:10.37,2013-04-08 11:15:00,
2013-04-08 07:20:00,36.1,31.1,29.98,ESE,112,8.3,8.3,82,0.00,CLR,,0.00,WeatherDisplay:10.37,2013-04-08 11:20:00,
2013-04-08 07:25:00,36.1,31.1,29.98,ESE,112,8.0,8.0,82,0.00,CLR,,0.00,WeatherDisplay:10.37,2013-04-08 11:25:00,
2013-04-08 07:30:00,36.1,31.1,29.98,ESE,112,8.0,8.0,82,0.00,CLR,,0.00,WeatherDisplay:10.37,2013-04-08 11:30:00,
2013-04-08 07:35:00,36.1,31.1,29.98,ESE,112,8.0,8.0,82,0.00,CLR,,0.00,WeatherDisplay:10.37,2013-04-08 11:35:00,
2013-04-08 07:40:00,36.1,31.1,29.98,ESE,112,8.0,8.0,82,0.00,CLR,,0.00,WeatherDisplay:10.37,2013-04-08 11:40:00,
2013-04-08 07:45:00,36.1,31.1,29.98,ESE,112,8.0,8.0,82,0.00,CLR,,0.00,WeatherDisplay:10.37,2013-04-08 11:45:00,
2013-04-08 07:50:00,36.1,31.1,29.98,ESE,112,8.0,8.0,82,0.00,CLR,,0.00,WeatherDisplay:10.37,2013-04-08 11:50:00,
2013-04-08 07:55:00,36.1,31.1,29.98,ESE,112,8.0,8.0,82,0.00,CLR,,0.00,WeatherDisplay:10.37,2013-04-08 11:55:00,
2013-04-08 08:00:00,36.1,31.1,29.98,ESE,112,8.0,8.0,82,0.00,CLR,,0.00,WeatherDisplay:10.37,2013-04-08 12:00:00,
2013-04-08 08:05:00,36.1,31.1,29.98,ESE,112,8.0,8.0,82,0.00,CLR,,0.00,WeatherDisplay:10.37,2013-04-08 12:05:00,
2013-04-08 08:10:00,36.1,31.1,29.98,ESE,112,8.0,8.0,82,0.00,CLR,,0.00,WeatherDisplay:10.37,2013-04-08 12:10:00,
2013-04-08 08:15:00,36.1,31.1,29.98,ESE,112,8.3,8.3,82,0.00,CLR,,0.00,WeatherDisplay:10.37,2013-04-08 12:15:00,
2013-04-08 08:20:00,36.1,31.1,29.98,ESE,112,8.3,8.3,82,0.00,CLR,,0.00,WeatherDisplay:10.37,2013-04-08 12:20:00,
2013-04-08 08:25:00,36.1,31.1,29.98,ESE,112,8.3,8.3,82,0.00,CLR,,0.00,WeatherDisplay:10.37,2013-04-08 12:25:00,
2013-04-08 08:31:00,36.1,31.1,29.98,ESE,112,8.3,8.3,82,0.00,CLR,,0.00,WeatherDisplay:10.37,2013-04-08 12:31:00,
2013-04-08 08:36:00,36.1,31.1,29.98,ESE,112,8.3,8.3,82,0.00,CLR,,0.00,WeatherDisplay:10.37,2013-04-08 12:36:00,
2013-04-08 08:41:00,36.1,31.1,29.98,ESE,112,8.3,8.3,82,0.00,CLR,,0.00,WeatherDisplay:10.37,2013-04-08 12:41:00,
2013-04-08 08:46:00,36.1,31.1,29.98,ESE,112,8.3,8.3,82,0.00,CLR,,0.00,WeatherDisplay:10.37,2013-04-08 12:46:00,
2013-04-08 08:52:00,36.1,31.1,29.98,ESE,112,8.3,8.3,82,0.00,CLR,,0.00,WeatherDisplay:10.37,2013-04-08 12:52:00,
2013-04-08 08:57:00,36.1,31.1,29.98,ESE,112,8.3,8.3,82,0.00,CLR,,0.00,WeatherDisplay:10.37,2013-04-08 12:57:00,
2013-04-08 09:02:00,36.1,31.1,29.98,ESE,112,8.3,8.3,82,0.00,CLR,,0.00,WeatherDisplay:10.37,2013-04-08 13:02:00,
2013-04-08 09:07:00,36.1,31.1,29.98,ESE,112,8.3,8.3,82,0.00,CLR,,0.00,WeatherDisplay:10.37,2013-04-08 13:07:00,
2013-04-08 09:12:00,36.1,31.1,29.98,ESE,112,8.3,8.3,82,0.00,CLR,,0.00,WeatherDisplay:10.37,2013-04-08 13:12:00,
2013-04-08 09:17:00,36.1,31.1,29.98,ESE,112,8.3,8.3,82,0.00,CLR,,0.00,WeatherDisplay:10.37,2013-04-08 13:17:00,
2013-04-08 09:22:00,36.1,31.1,29.98,ESE,112,8.3,8.3,82,0.00,CLR,,0.00,WeatherDisplay:10.37,2013-04-08 13:22:00,
2013-04-08 09:27:00,36.1,31.1,29.98,ESE,112,8.3,8.3,82,0.00,CLR,,0.00,WeatherDisplay:10.37,2013-04-08 13:27:00,
2013-04-08 09:32:00,36.1,31.1,29.98,ESE,112,8.3,8.3,82,0.00,CLR,,0.00,WeatherDisplay:10.37,2013-04-08 13:32:00,
2013-04-08 09:37:00,36.1,31.1,29.98,ESE,112,8.3,8.3,82,0.00,CLR,,0.00,WeatherDisplay:10.37,2013-04-08 13:37:00,
2013-04-08 09:43:00,36.1,31.1,29.98,ESE,112,8.3,8.3,82,0.00,CLR,,0.00,WeatherDisplay:10.37,2013-04-08 13:43:00,
2013-04-08 09:48:00,36.1,31.1,29.98,ESE,112,8.3,8.3,82,0.00,CLR,,0.00,WeatherDisplay:10.37,2013-04-08 13:48:00,
2013-04-08 09:53:00,36.1,31.1,29.98,ESE,112,8.3,8.3,82,0.00,CLR,,0.00,WeatherDisplay:10.37,2013-04-08 13:53:00,
2013-04-08 09:58:00,36.1,31.1,29.98,ESE,112,8.3,8.3,82,0.00,CLR,,0.00,WeatherDisplay:10.37,2013-04-08 13:58:00,
2013-04-08 10:03:00,36.1,31.1,29.98,ESE,112,8.3,8.3,82,0.00,CLR,,0.00,WeatherDisplay:10.37,2013-04-08 14:03:00,
2013-04-08 10:08:00,36.1,31.1,29.98,ESE,112,8.3,8.3,82,0.00,CLR,,0.00,WeatherDisplay:10.37,2013-04-08 14:08:00,
2013-04-08 10:13:00,36.1,31.1,29.98,ESE,112,8.3,8.3,82,0.00,CLR,,0.00,WeatherDisplay:10.37,2013-04-08 14:13:00,
2013-04-08 10:18:00,36.1,31.1,29.98,ESE,112,8.3,8.3,82,0.00,CLR,,0.00,WeatherDisplay:10.37,2013-04-08 14:18:00,
2013-04-08 10:24:00,36.1,31.1,29.98,ESE,112,8.3,8.3,82,0.00,CLR,,0.00,WeatherDisplay:10.37,2013-04-08 14:24:00,
2013-04-08 10:29:00,36.1,31.1,29.98,ESE,112,8.3,8.3,82,0.00,CLR,,0.00,WeatherDisplay:10.37,2013-04-08 14:29:00,
2013-04-08 10:34:00,36.1,31.1,29.98,ESE,112,8.3,8.3,82,0.00,CLR,,0.00,WeatherDisplay:10.37,2013-04-08 14:34:00,
2013-04-08 10:40:00,36.1,31.1,29.98,ESE,112,8.3,8.3,82,0.00,CLR,,0.00,WeatherDisplay:10.37,2013-04-08 14:40:00,
2013-04-08 10:45:00,36.1,31.1,29.98,ESE,112,8.3,8.3,82,0.00,CLR,,0.00,WeatherDisplay:10.37,2013-04-08 14:45:00,
2013-04-08 10:50:00,36.1,31.1,29.98,ESE,112,8.3,8.3,82,0.00,CLR,,0.00,WeatherDisplay:10.37,2013-04-08 14:50:00,
2013-04-08 10:55:00,36.1,31.1,29.98,ESE,112,8.0,8.0,82,0.00,CLR,,0.00,WeatherDisplay:10.37,2013-04-08 14:55:00,
2013-04-08 11:00:00,36.1,31.1,29.98,ESE,112,8.0,8.0,82,0.00,CLR,,0.00,WeatherDisplay:10.37,2013-04-08 15:00:00,
2013-04-08 11:05:00,36.1,31.1,29.98,ESE,112,8.0,8.0,82,0.00,CLR,,0.00,WeatherDisplay:10.37,2013-04-08 15:05:00,
2013-04-08 11:10:00,36.1,31.1,29.98,ESE,112,8.0,8.0,82,0.00,CLR,,0.00,WeatherDisplay:10.37,2013-04-08 15:10:00,
2013-04-08 11:15:00,36.1,31.1,29.98,ESE,112,8.0,8.0,82,0.00,CLR,,0.00,WeatherDisplay:10.37,2013-04-08 15:15:00,
2013-04-08 11:20:00,36.1,31.1,29.98,ESE,112,8.0,8.0,82,0.00,CLR,,0.00,WeatherDisplay:10.37,2013-04-08 15:20:00,
2013-04-08 11:25:00,36.1,31.1,29.98,ESE,112,8.0,8.0,82,0.00,CLR,,0.00,WeatherDisplay:10.37,2013-04-08 15:25:00,
2013-04-08 11:30:00,36.1,31.1,29.98,ESE,112,8.3,8.3,82,0.00,CLR,,0.00,WeatherDisplay:10.37,2013-04-08 15:30:00,
2013-04-08 11:35:00,36.1,31.1,29.98,ESE,112,8.3,8.3,82,0.00,CLR,,0.00,WeatherDisplay:10.37,2013-04-08 15:35:00,
2013-04-08 11:40:00,36.1,31.1,29.98,ESE,112,8.3,8.3,82,0.00,CLR,,0.00,WeatherDisplay:10.37,2013-04-08 15:40:00,
2013-04-08 11:46:00,36.1,31.1,29.98,ESE,112,8.3,8.3,82,0.00,CLR,,0.00,WeatherDisplay:10.37,2013-04-08 15:46:00,
2013-04-08 11:51:00,36.1,31.1,29.98,ESE,112,8.3,8.3,82,0.00,CLR,,0.00,WeatherDisplay:10.37,2013-04-08 15:51:00,
2013-04-08 11:56:00,36.1,31.1,29.98,ESE,112,8.3,8.3,82,0.00,CLR,,0.00,WeatherDisplay:10.37,2013-04-08 15:56:00,
2013-04-08 12:01:00,36.1,31.1,29.98,ESE,112,8.3,8.3,82,0.00,CLR,,0.00,WeatherDisplay:10.37,2013-04-08 16:01:00,
2013-04-08 12:07:00,36.1,31.1,29.98,ESE,112,8.3,8.3,82,0.00,CLR,,0.00,WeatherDisplay:10.37,2013-04-08 16:07:00,
2013-04-08 12:12:00,36.1,31.1,29.98,ESE,112,8.3,8.3,82,0.00,CLR,,0.00,WeatherDisplay:10.37,2013-04-08 16:12:00,
2013-04-08 12:17:00,36.1,31.1,29.98,ESE,112,8.3,8.3,82,0.00,CLR,,0.00,WeatherDisplay:10.37,2013-04-08 16:17:00,
2013-04-08 12:22:00,36.1,31.1,29.98,ESE,112,8.3,8.3,82,0.00,CLR,,0.00,WeatherDisplay:10.37,2013-04-08 16:22:00,
2013-04-08 12:27:00,36.1,31.1,29.98,ESE,112,8.3,8.3,82,0.00,CLR,,0.00,WeatherDisplay:10.37,2013-04-08 16:27:00,
2013-04-08 12:32:00,36.1,31.1,29.98,ESE,112,8.3,8.3,82,0.00,CLR,,0.00,WeatherDisplay:10.37,2013-04-08 16:32:00,
2013-04-08 12:37:00,36.1,31.1,29.98,ESE,112,8.3,8.3,82,0.00,CLR,,0.00,WeatherDisplay:10.37,2013-04-08 16:37:00,
2013-04-08 12:43:00,36.1,31.1,29.98,ESE,112,8.3,8.3,82,0.00,CLR,,0.00,WeatherDisplay:10.37,2013-04-08 16:43:00,
2013-04-08 12:48:00,36.1,31.1,29.98,ESE,112,8.3,8.3,82,0.00,CLR,,0.00,WeatherDisplay:10.37,2013-04-08 16:48:00,
2013-04-08 12:53:00,36.1,31.1,29.98,ESE,112,8.3,8.3,82,0.00,CLR,,0.00,WeatherDisplay:10.37,2013-04-08 16:53:00,
2013-04-08 12:58:00,36.1,31.1,29.98,ESE,112,8.3,8.3,82,0.00,CLR,,0.00,WeatherDisplay:10.37,2013-04-08 16:58:00,
2013-04-08 13:03:00,36.1,31.1,29.98,ESE,112,8.3,8.3,82,0.00,CLR,,0.00,WeatherDisplay:10.37,2013-04-08 17:03:00,
2013-04-08 13:08:00,36.1,31.1,29.98,ESE,112,8.3,8.3,82,0.00,CLR,,0.00,WeatherDisplay:10.37,2013-04-08 17:08:00,
2013-04-08 13:13:00,36.1,31.1,29.98,ESE,112,8.3,8.3,82,0.00,CLR,,0.00,WeatherDisplay:10.37,2013-04-08 17:13:00,
2013-04-08 13:18:00,36.1,31.1,29.98,ESE,112,8.3,8.3,82,0.00,CLR,,0.00,WeatherDisplay:10.37,2013-04-08 17:18:00,
2013-04-08 13:24:00,36.1,31.1,29.98,ESE,112,8.3,8.3,82,0.00,CLR,,0.00,WeatherDisplay:10.37,2013-04-08 17:24:00,
2013-04-08 13:29:00,36.1,31.1,29.98,ESE,112,8.3,8.3,82,0.00,CLR,,0.00,WeatherDisplay:10.37,2013-04-08 17:29:00,
2013-04-08 13:34:00,36.1,31.1,29.98,ESE,112,8.3,8.3,82,0.00,CLR,,0.00,WeatherDisplay:10.37,2013-04-08 17:34:00,
2013-04-08 13:40:00,36.1,31.1,29.98,ESE,112,8.3,8.3,82,0.00,CLR,,0.00,WeatherDisplay:10.37,2013-04-08 17:40:00,
2013-04-08 13:45:00,36.1,31.1,29.98,ESE,112,8.3,8.3,82,0.00,CLR,,0.00,WeatherDisplay:10.37,2013-04-08 17:45:00,
2013-04-08 13:50:00,36.1,31.1,29.98,ESE,112,8.3,8.3,82,0.00,CLR,,0.00,WeatherDisplay:10.37,2013-04-08 17:50:00,
2013-04-08 13:55:00,36.1,31.1,29.98,ESE,112,8.3,8.3,82,0.00,CLR,,0.00,WeatherDisplay:10.37,2013-04-08 17:55:00,
2013-04-08 14:00:00,36.1,31.1,29.98,ESE,112,8.3,8.3,82,0.00,CLR,,0.00,WeatherDisplay:10.37,2013-04-08 18:00:00,
2013-04-08 14:05:00,36.1,31.1,29.98,ESE,112,8.3,8.3,82,0.00,CLR,,0.00,WeatherDisplay:10.37,2013-04-08 18:05:00,
2013-04-08 14:10:00,36.1,31.1,29.98,ESE,112,8.0,8.0,82,0.00,CLR,,0.00,WeatherDisplay:10.37,2013-04-08 18:10:00,
2013-04-08 14:15:00,36.1,31.1,29.98,ESE,112,8.0,8.0,82,0.00,CLR,,0.00,WeatherDisplay:10.37,2013-04-08 18:15:00,
2013-04-08 14:20:00,36.1,31.1,29.98,ESE,112,8.0,8.0,82,0.00,CLR,,0.00,WeatherDisplay:10.37,2013-04-08 18:20:00,
2013-04-08 14:25:00,36.1,31.1,29.98,ESE,112,8.0,8.0,82,0.00,CLR,,0.00,WeatherDisplay:10.37,2013-04-08 18:25:00,
2013-04-08 14:30:00,36.1,31.1,29.98,ESE,112,8.0,8.0,82,0.00,CLR,,0.00,WeatherDisplay:10.37,2013-04-08 18:30:00,
2013-04-08 14:35:00,36.1,31.1,29.98,ESE,112,8.0,8.0,82,0.00,CLR,,0.00,WeatherDisplay:10.37,2013-04-08 18:35:00,
2013-04-08 14:40:00,36.1,31.1,29.98,ESE,112,8.0,8.0,82,0.00,CLR,,0.00,WeatherDisplay:10.37,2013-04-08 18:40:00,
2013-04-08 14:45:00,36.1,31.1,29.98,ESE,112,8.0,8.0,82,0.00,CLR,,0.00,WeatherDisplay:10.37,2013-04-08 18:45:00,
2013-04-08 14:50:00,36.1,31.1,29.98,ESE,112,8.0,8.0,82,0.00,CLR,,0.00,WeatherDisplay:10.37,2013-04-08 18:50:00,
2013-04-08 14:55:00,36.1,31.1,29.98,ESE,112,8.3,8.3,82,0.00,CLR,,0.00,WeatherDisplay:10.37,2013-04-08 18:55:00,
2013-04-08 15:01:00,36.1,31.1,29.98,ESE,112,8.3,8.3,82,0.00,CLR,,0.00,WeatherDisplay:10.37,2013-04-08 19:01:00,
2013-04-08 15:06:00,36.1,31.1,29.98,ESE,112,8.3,8.3,82,0.00,CLR,,0.00,WeatherDisplay:10.37,2013-04-08 19:06:00,
2013-04-08 15:11:00,36.1,31.1,29.98,ESE,112,8.3,8.3,82,0.00,CLR,,0.00,WeatherDisplay:10.37,2013-04-08 19:11:00,
2013-04-08 15:16:00,36.1,31.1,29.98,ESE,112,8.3,8.3,82,0.00,CLR,,0.00,WeatherDisplay:10.37,2013-04-08 19:16:00,
2013-04-08 15:21:00,36.1,31.1,29.98,ESE,112,8.3,8.3,82,0.00,CLR,,0.00,WeatherDisplay:10.37,2013-04-08 19:21:00,
2013-04-08 15:26:00,36.1,31.1,29.98,ESE,112,8.3,8.3,82,0.00,CLR,,0.00,WeatherDisplay:10.37,2013-04-08 19:26:00,
2013-04-08 15:32:00,36.1,31.1,29.98,ESE,112,8.3,8.3,82,0.00,CLR,,0.00,WeatherDisplay:10.37,2013-04-08 19:32:00,
2013-04-08 15:37:00,36.1,31.1,29.98,ESE,112,8.3,8.3,82,0.00,CLR,,0.00,WeatherDisplay:10.37,2013-04-08 19:37:00,
2013-04-08 15:42:00,36.1,31.1,29.98,ESE,112,8.3,8.3,82,0.00,CLR,,0.00,WeatherDisplay:10.37,2013-04-08 19:42:00,
2013-04-08 15:47:00,36.1,31.1,29.98,ESE,112,8.3,8.3,82,0.00,CLR,,0.00,WeatherDisplay:10.37,2013-04-08 19:47:00,
2013-04-08 15:52:00,36.1,31.1,29.98,ESE,112,8.3,8.3,82,0.00,CLR,,0.00,WeatherDisplay:10.37,2013-04-08 19:52:00,
2013-04-08 15:57:00,36.1,31.1,29.98,ESE,112,8.3,8.3,82,0.00,CLR,,0.00,WeatherDisplay:10.37,2013-04-08 19:57:00,
2013-04-08 16:02:00,36.1,31.1,29.98,ESE,112,8.3,8.3,82,0.00,CLR,,0.00,WeatherDisplay:10.37,2013-04-08 20:02:00,
2013-04-08 16:07:00,36.1,31.1,29.98,ESE,112,8.3,8.3,82,0.00,CLR,,0.00,WeatherDisplay:10.37,2013-04-08 20:07:00,
2013-04-08 16:13:00,36.1,31.1,29.98,ESE,112,8.3,8.3,82,0.00,CLR,,0.00,WeatherDisplay:10.37,2013-04-08 20:13:00,
2013-04-08 16:18:00,36.1,31.1,29.98,ESE,112,8.3,8.3,82,0.00,CLR,,0.00,WeatherDisplay:10.37,2013-04-08 20:18:00,
2013-04-08 16:23:00,36.1,31.1,29.98,ESE,112,8.3,8.3,82,0.00,CLR,,0.00,WeatherDisplay:10.37,2013-04-08 20:23:00,
2013-04-08 16:28:00,36.1,31.1,29.98,ESE,112,8.3,8.3,82,0.00,CLR,,0.00,WeatherDisplay:10.37,2013-04-08 20:28:00,
2013-04-08 16:33:00,36.1,31.1,29.98,ESE,112,8.3,8.3,82,0.00,CLR,,0.00,WeatherDisplay:10.37,2013-04-08 20:33:00,
2013-04-08 16:38:00,36.1,31.1,29.98,ESE,112,8.3,8.3,82,0.00,CLR,,0.00,WeatherDisplay:10.37,2013-04-08 20:38:00,
2013-04-08 16:43:00,36.1,31.1,29.98,ESE,112,8.3,8.3,82,0.00,CLR,,0.00,WeatherDisplay:10.37,2013-04-08 20:43:00,
2013-04-08 16:48:00,36.1,31.1,29.98,ESE,112,8.3,8.3,82,0.00,CLR,,0.00,WeatherDisplay:10.37,2013-04-08 20:48:00,
2013-04-08 16:54:00,36.1,31.1,29.98,ESE,112,8.3,8.3,82,0.00,CLR,,0.00,WeatherDisplay:10.37,2013-04-08 20:54:00,
2013-04-08 16:59:00,36.1,31.1,29.98,ESE,112,8.3,8.3,82,0.00,CLR,,0.00,WeatherDisplay:10.37,2013-04-08 20:59:00,
2013-04-08 17:04:00,36.1,31.1,29.98,ESE,112,8.3,8.3,82,0.00,CLR,,0.00,WeatherDisplay:10.37,2013-04-08 21:04:00,
2013-04-08 17:10:00,36.1,31.1,29.98,ESE,112,8.3,8.3,82,0.00,CLR,,0.00,WeatherDisplay:10.37,2013-04-08 21:10:00,
2013-04-08 17:15:00,36.1,31.1,29.98,ESE,112,8.3,8.3,82,0.00,CLR,,0.00,WeatherDisplay:10.37,2013-04-08 21:15:00,
2013-04-08 17:20:00,36.1,31.1,29.98,ESE,112,8.3,8.3,82,0.00,CLR,,0.00,WeatherDisplay:10.37,2013-04-08 21:20:00,
2013-04-08 17:25:00,36.1,31.1,29.98,ESE,112,8.3,8.3,82,0.00,CLR,,0.00,WeatherDisplay:10.37,2013-04-08 21:25:00,
2013-04-08 17:30:00,36.1,31.1,29.98,ESE,112,8.3,8.3,82,0.00,CLR,,0.00,WeatherDisplay:10.37,2013-04-08 21:30:00,
2013-04-08 17:35:00,36.1,31.1,29.98,ESE,112,8.3,8.3,82,0.00,CLR,,0.00,WeatherDisplay:10.37,2013-04-08 21:35:00,
2013-04-08 17:40:00,36.1,31.1,29.98,ESE,112,8.0,8.0,82,0.00,CLR,,0.00,WeatherDisplay:10.37,2013-04-08 21:40:00,
2013-04-08 17:45:00,36.1,31.1,29.98,ESE,112,8.0,8.0,82,0.00,CLR,,0.00,WeatherDisplay:10.37,2013-04-08 21:45:00,
2013-04-08 17:50:00,36.1,31.1,29.98,ESE,112,8.0,8.0,82,0.00,CLR,,0.00,WeatherDisplay:10.37,2013-04-08 21:50:00,
2013-04-08 17:55:00,36.1,31.1,29.98,ESE,112,8.0,8.0,82,0.00,CLR,,0.00,WeatherDisplay:10.37,2013-04-08 21:55:00,
2013-04-08 18:00:00,36.1,31.1,29.98,ESE,112,8.0,8.0,82,0.00,CLR,,0.00,WeatherDisplay:10.37,2013-04-08 22:00:00,
2013-04-08 18:05:00,36.1,31.1,29.98,ESE,112,8.0,8.0,82,0.00,CLR,,0.00,WeatherDisplay:10.37,2013-04-08 22:05:00,
2013-04-08 18:10:00,36.1,31.1,29.98,ESE,112,8.0,8.0,82,0.00,CLR,,0.00,WeatherDisplay:10.37,2013-04-08 22:10:00,
2013-04-08 18:15:00,36.1,31.1,29.98,ESE,112,8.0,8.0,82,0.00,CLR,,0.00,WeatherDisplay:10.37,2013-04-08 22:15:00,
2013-04-08 18:20:00,36.1,31.1,29.98,ESE,112,8.0,8.0,82,0.00,CLR,,0.00,WeatherDisplay:10.37,2013-04-08 22:20:00,
2013-04-08 18:25:00,36.1,31.1,29.98,ESE,112,8.0,8.0,82,0.00,CLR,,0.00,WeatherDisplay:10.37,2013-04-08 22:25:00,
2013-04-08 18:30:00,36.1,31.1,29.98,ESE,112,8.0,8.0,82,0.00,CLR,,0.00,WeatherDisplay:10.37,2013-04-08 22:30:00,
2013-04-08 18:35:00,36.1,31.1,29.98,ESE,112,8.0,8.0,82,0.00,CLR,,0.00,WeatherDisplay:10.37,2013-04-08 22:35:00,
2013-04-08 18:40:00,36.1,31.1,29.98,ESE,112,8.0,8.0,82,0.00,CLR,,0.00,WeatherDisplay:10.37,2013-04-08 22:40:00,
2013-04-08 18:45:00,36.1,31.1,29.98,ESE,112,8.0,8.0,82,0.00,CLR,,0.00,WeatherDisplay:10.37,2013-04-08 22:45:00,
2013-04-08 18:50:00,36.1,31.1,29.98,ESE,112,8.0,8.0,82,0.00,CLR,,0.00,WeatherDisplay:10.37,2013-04-08 22:50:00,
2013-04-08 18:55:00,36.1,31.1,29.98,ESE,112,8.3,8.3,82,0.00,CLR,,0.00,WeatherDisplay:10.37,2013-04-08 22:55:00,
2013-04-08 19:00:00,36.1,31.1,29.98,ESE,112,8.3,8.3,82,0.00,CLR,,0.00,WeatherDisplay:10.37,2013-04-08 23:00:00,
2013-04-08 19:05:00,36.1,31.1,29.98,ESE,112,8.0,8.0,82,0.00,CLR,,0.00,WeatherDisplay:10.37,2013-04-08 23:05:00,
2013-04-08 19:10:00,43.9,41.2,29.83,West,270,8.1,8.3,90,0.00,CLR,,0.00,WeatherDisplay:10.37,2013-04-08 23:10:00,
2013-04-08 19:15:00,43.9,41.2,29.83,SSW,202,2.4,8.1,90,0.47,RA,,0.47,WeatherDisplay:10.37,2013-04-08 23:15:00,
2013-04-08 19:21:00,43.7,41.0,29.83,South,180,4.6,8.1,90,0.47,RA,,0.47,WeatherDisplay:10.37,2013-04-08 23:21:00,
2013-04-08 19:26:00,43.5,40.8,29.84,West,270,7.8,10.9,90,0.47,,,0.47,WeatherDisplay:10.37,2013-04-08 23:26:00,
2013-04-08 19:31:00,43.3,40.6,29.84,West,270,8.0,9.4,90,0.47,CLR,,0.47,WeatherDisplay:10.37,2013-04-08 23:31:00,
2013-04-08 19:36:00,43.2,40.5,29.84,NNW,338,4.2,11.5,90,0.47,CLR,,0.47,WeatherDisplay:10.37,2013-04-08 23:36:00,
2013-04-08 19:41:00,43.0,40.3,29.85,WSW,248,6.1,9.4,90,0.47,CLR,,0.47,WeatherDisplay:10.37,2013-04-08 23:41:00,
2013-04-08 19:46:00,43.0,40.3,29.85,SW,225,11.4,11.5,90,0.47,CLR,,0.47,WeatherDisplay:10.37,2013-04-08 23:46:00,
2013-04-08 19:52:00,42.8,40.4,29.86,SW,225,11.4,11.5,91,0.47,CLR,,0.47,WeatherDisplay:10.37,2013-04-08 23:52:00,
2013-04-08 19:57:00,42.6,40.2,29.86,West,270,6.9,6.9,91,0.47,CLR,,0.47,WeatherDisplay:10.37,2013-04-08 23:57:00,
2013-04-08 20:02:00,42.4,40.0,29.86,NNW,338,4.1,10.4,91,0.47,CLR,,0.47,WeatherDisplay:10.37,2013-04-09 00:02:00,
2013-04-08 20:07:00,42.4,40.0,29.86,West,270,5.8,6.9,91,0.47,CLR,,0.47,WeatherDisplay:10.37,2013-04-09 00:07:00,
2013-04-08 20:12:00,42.4,40.2,29.86,West,270,3.3,7.3,92,0.47,CLR,,0.47,WeatherDisplay:10.37,2013-04-09 00:12:00,
2013-04-08 20:18:00,42.4,40.2,29.88,WSW,248,4.7,5.8,92,0.00,CLR,,0.47,WeatherDisplay:10.37,2013-04-09 00:18:00,
2013-04-08 20:23:00,42.3,40.1,29.88,West,270,5.2,7.3,92,0.00,CLR,,0.47,WeatherDisplay:10.37,2013-04-09 00:23:00,
2013-04-08 20:28:00,42.1,39.9,29.89,SSW,202,4.8,6.9,92,0.00,CLR,,0.47,WeatherDisplay:10.37,2013-04-09 00:28:00,
2013-04-08 20:33:00,42.1,39.9,29.89,West,270,3.7,5.8,92,0.00,CLR,,0.47,WeatherDisplay:10.37,2013-04-09 00:33:00,
2013-04-08 20:38:00,42.1,39.9,29.90,SSE,158,4.6,8.1,92,0.00,CLR,,0.47,WeatherDisplay:10.37,2013-04-09 00:38:00,
2013-04-08 20:43:00,42.1,39.9,29.90,WNW,292,4.4,9.2,92,0.00,CLR,,0.47,WeatherDisplay:10.37,2013-04-09 00:43:00,
2013-04-08 20:49:00,42.1,39.9,29.90,SW,225,6.1,6.9,92,0.00,CLR,,0.47,WeatherDisplay:10.37,2013-04-09 00:49:00,
2013-04-08 20:54:00,42.1,39.9,29.90,WNW,292,1.9,3.5,92,0.00,CLR,,0.47,WeatherDisplay:10.37,2013-04-09 00:54:00,
2013-04-08 21:00:00,41.9,39.7,29.90,West,270,3.6,6.8,92,0.00,CLR,,0.47,WeatherDisplay:10.37,2013-04-09 01:00:00,
2013-04-08 21:05:00,41.9,39.7,29.91,WSW,248,5.1,6.3,92,0.00,CLR,,0.47,WeatherDisplay:10.37,2013-04-09 01:05:00,
2013-04-08 21:10:00,41.7,39.8,29.91,WNW,292,2.7,3.7,93,0.00,CLR,,0.47,WeatherDisplay:10.37,2013-04-09 01:10:00,
2013-04-08 21:15:00,41.7,39.8,29.93,SW,225,4.3,5.3,93,0.00,CLR,,0.47,WeatherDisplay:10.37,2013-04-09 01:15:00,
2013-04-08 21:20:00,41.5,39.6,29.93,WNW,292,5.7,9.2,93,0.00,CLR,,0.47,WeatherDisplay:10.37,2013-04-09 01:20:00,
2013-04-08 21:25:00,41.4,39.5,29.93,West,270,7.8,10.4,93,0.00,CLR,,0.47,WeatherDisplay:10.37,2013-04-09 01:25:00,
2013-04-08 21:30:00,41.2,39.6,29.93,West,262,6.0,10.0,94,0.00,CLR,,0.47,WeatherDisplay:10.37,2013-04-09 01:30:00,
2013-04-08 21:35:00,40.8,39.2,29.93,SSW,202,4.7,5.8,94,0.00,CLR,,0.47,WeatherDisplay:10.37,2013-04-09 01:35:00,
2013-04-08 21:40:00,40.8,39.2,29.94,West,269,6.0,8.0,94,0.00,CLR,,0.47,WeatherDisplay:10.37,2013-04-09 01:40:00,
2013-04-08 21:45:00,40.8,39.5,29.94,WNW,292,4.1,5.8,95,0.00,CLR,,0.47,WeatherDisplay:10.37,2013-04-09 01:45:00,
2013-04-08 21:51:00,40.6,39.3,29.94,WNW,292,3.2,3.7,95,0.00,CLR,,0.47,WeatherDisplay:10.37,2013-04-09 01:51:00,
2013-04-08 21:56:00,40.5,39.2,29.94,NNW,338,3.0,4.6,95,0.00,CLR,,0.47,WeatherDisplay:10.37,2013-04-09 01:56:00,
2013-04-08 22:01:00,40.5,39.2,29.94,West,270,3.8,4.6,95,0.00,CLR,,0.47,WeatherDisplay:10.37,2013-04-09 02:01:00,
2013-04-08 22:06:00,40.5,39.4,29.95,NW,315,2.0,4.6,96,0.00,CLR,,0.47,WeatherDisplay:10.37,2013-04-09 02:06:00,
2013-04-08 22:11:00,40.5,39.4,29.95,West,270,3.9,6.9,96,0.00,CLR,,0.47,WeatherDisplay:10.37,2013-04-09 02:11:00,
2013-04-08 22:16:00,40.3,39.3,29.95,WSW,248,3.3,5.8,96,0.00,CLR,,0.47,WeatherDisplay:10.37,2013-04-09 02:16:00,
2013-04-08 22:22:00,40.3,39.3,29.95,WSW,248,4.0,5.8,96,0.00,CLR,,0.47,WeatherDisplay:10.37,2013-04-09 02:22:00,
2013-04-08 22:27:00,40.3,39.3,29.96,WNW,292,3.1,4.6,96,0.00,CLR,,0.47,WeatherDisplay:10.37,2013-04-09 02:27:00,
2013-04-08 22:32:00,40.3,39.3,29.96,West,270,5.4,5.8,96,0.00,CLR,,0.47,WeatherDisplay:10.37,2013-04-09 02:32:00,
2013-04-08 22:37:00,40.3,39.3,29.97,SW,225,4.8,8.1,96,0.00,CLR,,0.47,WeatherDisplay:10.37,2013-04-09 02:37:00,
2013-04-08 22:42:00,40.1,39.3,29.97,WNW,292,3.7,5.8,97,0.00,CLR,,0.47,WeatherDisplay:10.37,2013-04-09 02:42:00,
2013-04-08 22:47:00,40.1,39.3,29.97,WNW,292,2.2,3.5,97,0.00,CLR,,0.47,WeatherDisplay:10.37,2013-04-09 02:47:00,
2013-04-08 22:52:00,39.9,39.1,29.97,NNW,338,3.3,4.6,97,0.00,CLR,,0.47,WeatherDisplay:10.37,2013-04-09 02:52:00,
2013-04-08 22:57:00,39.9,39.1,29.97,NNW,338,4.1,4.7,97,0.00,CLR,,0.47,WeatherDisplay:10.37,2013-04-09 02:57:00,
2013-04-08 23:03:00,39.9,39.1,29.97,NNW,338,0.3,1.7,97,0.00,CLR,,0.47,WeatherDisplay:10.37,2013-04-09 03:03:00,
2013-04-08 23:08:00,39.9,39.1,29.97,NNW,338,1.4,2.3,97,0.00,CLR,,0.47,WeatherDisplay:10.37,2013-04-09 03:08:00,
2013-04-08 23:13:00,39.9,39.1,29.98,NNW,338,0.0,0.0,97,0.00,CLR,,0.47,WeatherDisplay:10.37,2013-04-09 03:13:00,
2013-04-08 23:18:00,39.9,39.1,29.98,NNW,338,0.0,0.0,97,0.00,CLR,,0.47,WeatherDisplay:10.37,2013-04-09 03:18:00,
2013-04-08 23:23:00,39.7,38.9,29.98,NNW,338,2.2,2.3,97,0.00,CLR,,0.47,WeatherDisplay:10.37,2013-04-09 03:23:00,
2013-04-08 23:28:00,39.7,38.9,29.98,NNW,338,1.0,1.7,97,0.00,CLR,,0.47,WeatherDisplay:10.37,2013-04-09 03:28:00,
2013-04-08 23:33:00,39.7,38.9,29.98,NNW,338,0.0,0.0,97,0.00,CLR,,0.47,WeatherDisplay:10.37,2013-04-09 03:33:00,
2013-04-08 23:38:00,39.7,38.9,29.98,NNW,338,1.8,2.7,97,0.00,CLR,,0.47,WeatherDisplay:10.37,2013-04-09 03:38:00,
2013-04-08 23:43:00,39.7,38.9,29.98,NNW,338,0.1,1.7,97,0.00,CLR,,0.47,WeatherDisplay:10.37,2013-04-09 03:43:00,
2013-04-08 23:49:00,39.7,38.9,29.99,NNW,338,0.3,1.2,97,0.00,CLR,,0.47,WeatherDisplay:10.37,2013-04-09 03:49:00,
2013-04-08 23:54:00,39.7,38.9,29.99,NNW,338,0.0,0.0,97,0.00,CLR,,0.47,WeatherDisplay:10.37,2013-04-09 03:54:00,
2013-04-08 23:59:00,39.7,38.9,29.99,NNW,338,0.9,1.7,97,0.00,CLR,,0.47,WeatherDisplay:10.37,2013-04-09 03:59:00,